Regional Weather Roundup
Issued by NWS

Home | Current Version | Previous Version | Graphics & Text | Print | Product List | Glossary On
Versions: 1 2 3 4 5 6 7 8 9 10 11 12 13 14 15 16 17 18 19 20 21 22 23 24 25 26 27 28 29 30 31 32 33 34 35 36 37 38 39 40 41 42 43 44 45 46 47 48 49 50
000
ASUS43 KOAX 252210
RWRNE

WEATHER ROUNDUP FOR NEBRASKA
NATIONAL WEATHER SERVICE OMAHA NE
500 PM CDT FRI JUL 25 2014

NOTES: SATELLITE DATA IS BEING USED TO AUGMENT CLOUD COVER ABOVE
       12000 FEET.
       "FAIR" INDICATES FEW OR NO CLOUDS BELOW 12,000 FEET WITH NO
       SIGNIFICANT WEATHER AND/OR OBSTRUCTIONS TO VISIBILITY.

  * THESE STATIONS DO NOT REPORT WEATHER SUCH AS RAIN...SNOW OR FOG.

NEZ001>004-019>022-054>056-252300-
NEBRASKA PANHANDLE

CITY           SKY/WX    TMP DP  RH WIND       PRES   REMARKS
SCOTTSBLUFF    PTSUNNY   88  52  29 SE14      29.94F
ALLIANCE       MOSUNNY   87  48  25 SE9G16    29.94F
CHADRON        SUNNY     90  48  23 SE10      29.88F
KIMBALL        PTSUNNY   86  50  29 NE8       30.01F
SIDNEY         SUNNY     94  50  22 VRB7      29.98F HX  91
$$

NEZ057>060-069>072-079>082-252300-
SOUTHWEST NEBRASKA

CITY           SKY/WX    TMP DP  RH WIND       PRES   REMARKS
NORTH PLATTE   MOSUNNY   92  64  39 E5        29.87F HX  93
IMPERIAL       SUNNY     93  59  31 N8        29.91F HX  92
LEXINGTON      MOSUNNY   92  69  46 N5        29.85F HX  97
MCCOOK         SUNNY     95  63  34 N7        29.86F HX  96
OGALLALA       PTSUNNY   89  57  33 E6        29.91F
$$

NEZ005>010-023>029-035>040-094-252300-
NORTH CENTRAL NEBRASKA

CITY           SKY/WX    TMP DP  RH WIND       PRES   REMARKS
VALENTINE      SUNNY     90  57  32 VRB5G17   29.86F
AINSWORTH      SUNNY     88  64  45 NE5       29.85F
BROKEN BOW     MOSUNNY   89  70  53 N9        29.85F HX  94
O`NEILL        MOSUNNY   92  60  33 N8        29.81S HX  92
ORD            MOSUNNY   89  70  53 N7        29.81F HX  94
THEDFORD       MOSUNNY   88  65  46 NE5       29.90S
$$

NEZ041-046>049-061>064-073>077-083>087-252300-
SOUTH CENTRAL NEBRASKA

CITY           SKY/WX    TMP DP  RH WIND       PRES   REMARKS
GRAND ISLAND   MOSUNNY   93  70  46 N7        29.80S HX  99
AURORA         SUNNY     93  73  52 N5        29.79S HX 101
HASTINGS       MOSUNNY   92  64  39 NW6       29.81S HX  93
HEBRON         MOSUNNY   96  69  41 N8        29.76S HX 102
HOLDREGE       MOSUNNY   91  67  45 N3        29.84S HX  94
KEARNEY *      MOSUNNY   93  68  43 NW8       29.84R HX  97
YORK           SUNNY     91  73  55 N6        29.78S HX 100
$$

NEZ011>018-030>034-042>045-252300-
NORTHEAST NEBRASKA

CITY           SKY/WX    TMP DP  RH WIND       PRES   REMARKS
NORFOLK        SUNNY     91  70  49 N10       29.76F HX  96
ALBION         MOSUNNY   87  72  61 NE6       29.79S HX  93
BLAIR          MOSUNNY   91  71  51 CALM      29.75S HX  97
COLUMBUS *     MOSUNNY   90  73  58 NW6       29.76S HX  98
FREMONT        PTSUNNY   94  74  52 N3        29.74S HX 103
WAYNE          MOSUNNY   89  75  62 NE5       29.77S HX  98
$$

NEZ050>053-065>068-078-088>093-252300-
SOUTHEAST NEBRASKA

CITY           SKY/WX    TMP DP  RH WIND       PRES   REMARKS
LINCOLN        MOSUNNY   97  69  40 W9        29.75R HX 103
OMAHA EPPLEY   MOSUNNY   93  76  57 E8        29.73S HX 105
BEATRICE       SUNNY     97  74  48 NW6       29.74S HX 108
FALLS CITY     SUNNY    102  69  34 SW16G23   29.70F HX 109
NEBRASKA CITY  MOSUNNY   98  67  36 W12       29.72S HX 101
PLATTSMOUTH    PTSUNNY   96  69  41 SW6       29.73S HX 102
$$

NEZ044-045-051>053-067-252300-
OMAHA AREA

CITY           SKY/WX    TMP DP  RH WIND       PRES   REMARKS
OMAHA EPPLEY   MOSUNNY   93  76  57 E8        29.73S HX 105
BLAIR          MOSUNNY   91  71  51 CALM      29.75S HX  97
FREMONT        PTSUNNY   94  74  52 N3        29.74S HX 103
MILLARD        PTSUNNY   94  74  53 CALM      29.72F HX 104
OFFUTT AFB     PTSUNNY   94  76  56 W6        29.72S HX 106
PLATTSMOUTH    PTSUNNY   96  69  41 SW6       29.73S HX 102
WAHOO          FAIR      92  73  52 CALM      29.74S HX 100
$$



USA.gov is the U.S. government's official web portal to all federal, state and local government web resources and services.